Glasgow, United Kingdom

9:51 AM GMT on February 10, 2016 (GMT +0000)
Glasgow

Weather History for EGPF - July, 2013

Change the Weather History Date:

Sunday, July 28, 2013

  Actual Average Record
Temperature  
Mean Temperature 62 °F -  
Max Temperature 66 °F 65 °F 77 °F (2008)
Min Temperature 57 °F 49 °F 44 °F (1999)
Degree Days  
Heating Degree Days 4    
Growing Degree Days 12 (Base 50)    
Moisture  
Dew Point 58 °F    
Average Humidity 89    
Maximum Humidity 100    
Minimum Humidity 73    
Precipitation  
Precipitation 0.00 in - - ()
Sea Level Pressure  
Sea Level Pressure 29.57 in    
Wind  
Wind Speed 5 mph ()    
Max Wind Speed 15 mph    
Max Gust Speed -    
Visibility 5.6 miles    
Events Rain    
Averages and records for this station are not official NWS values.
T = Trace of Precipitation, MM = Missing Value Source: Averaged Metar Reports

Daily Weather History Graph

Daily Weather History Graph

Search for Another Location

Airport or City:

Trip Planner

Search our weather history database for the weather conditions in past years. The results will help you decide how hot, cold, wet, or windy it might be!

Date:

Astronomy

Jul. 28, 2013 Rise Set
Actual Time 5:15 AM BST 9:32 PM BST
Civil Twilight 4:25 AM BST 10:21 PM BST
Nautical Twilight 3:08 AM BST 11:37 PM BST
Astronomical Twilight 1:56 AM BST 12:51 AM BST
Moon 11:17 PM BST (7/28) 1:07 PM BST (7/28)
Length of Visible Light 17h 56m
Length of Day
16h 16m
Waning Gibbous, 63% of the Moon is Illuminated
Jul 28
Waning Gibbous
Jul 29
Last Quarter
Aug 6
New
Aug 14
First Quarter
Aug 21
Full

Hourly Weather History & Observations

Time (BST) Temp. Dew Point Humidity Pressure Visibility Wind Dir Wind Speed Gust Speed Precip Events Conditions
12:20 AM 60.8 °F 59.0 °F 94% 29.65 in 6.2 mi ENE 6.9 mph - N/A Rain Light Rain
12:50 AM 60.8 °F 59.0 °F 94% 29.62 in 6.2 mi East 8.1 mph - N/A   Scattered Clouds
1:20 AM 60.8 °F 59.0 °F 94% 29.62 in 5.6 mi ENE 10.4 mph - N/A Rain Light Rain Showers
1:50 AM 60.8 °F 59.0 °F 94% 29.62 in 5.0 mi NE 6.9 mph - N/A Rain Light Rain Showers
2:20 AM 60.8 °F 59.0 °F 94% 29.62 in 6.2 mi NE 8.1 mph - N/A Rain Light Rain
2:50 AM 59.0 °F 59.0 °F 100% 29.62 in 5.6 mi ENE 4.6 mph - N/A Rain Light Rain
3:20 AM 59.0 °F 57.2 °F 94% 29.59 in 5.0 mi NE 5.8 mph - N/A Rain Light Rain
3:50 AM 59.0 °F 59.0 °F 100% 29.59 in 4.3 mi ENE 8.1 mph - N/A Rain Light Rain
4:20 AM 59.0 °F 59.0 °F 100% 29.59 in 3.7 mi ENE 5.8 mph - N/A Rain Rain
4:50 AM 59.0 °F 57.2 °F 94% 29.59 in 4.3 mi NE 6.9 mph - N/A Rain Rain
5:20 AM 59.0 °F 57.2 °F 94% 29.59 in 5.0 mi ENE 4.6 mph - N/A Rain Light Rain
5:50 AM 57.2 °F 57.2 °F 100% 29.56 in 3.7 mi NNE 2.3 mph - N/A Rain Light Rain
6:20 AM 57.2 °F 57.2 °F 100% 29.56 in 3.7 mi NW 2.3 mph - N/A Rain Light Rain
6:50 AM 57.2 °F 57.2 °F 100% 29.56 in 5.6 mi NW 2.3 mph - N/A Rain Light Rain
7:20 AM 57.2 °F 57.2 °F 100% 29.56 in 3.1 mi Variable 2.3 mph - N/A Rain Light Rain
7:50 AM 57.2 °F 57.2 °F 100% 29.56 in - WSW 2.3 mph - N/A Rain Rain
8:20 AM 57.2 °F 57.2 °F 100% 29.56 in 4.3 mi Calm Calm - N/A Rain Light Rain
8:50 AM 59.0 °F 57.2 °F 94% 29.56 in 4.3 mi Calm Calm - N/A Rain Light Rain
9:20 AM 59.0 °F 57.2 °F 94% 29.56 in 3.7 mi Calm Calm - N/A Rain Light Rain
9:50 AM 59.0 °F 57.2 °F 94% 29.56 in 5.6 mi North 2.3 mph - N/A Rain Light Rain
10:20 AM 59.0 °F 59.0 °F 100% 29.56 in 6.2 mi Calm Calm - N/A Rain Light Rain
10:50 AM 59.0 °F 57.2 °F 94% 29.53 in 6.2 mi Variable 2.3 mph - N/A Rain Light Rain
11:20 AM 60.8 °F 57.2 °F 88% 29.53 in 6.2 mi Calm Calm - N/A Rain Light Rain
11:50 AM 60.8 °F 59.0 °F 94% 29.53 in 6.2 mi Variable 3.5 mph - N/A Rain Light Rain
12:20 PM 60.8 °F 57.2 °F 88% 29.53 in 6.2 mi West 3.5 mph - N/A Rain Light Rain
12:50 PM 62.6 °F 57.2 °F 82% 29.53 in 6.2 mi Variable 3.5 mph - N/A Rain Light Rain
1:20 PM 62.6 °F 57.2 °F 82% 29.53 in 6.2 mi Variable 3.5 mph - N/A Rain Light Rain
1:50 PM 62.6 °F 57.2 °F 82% 29.56 in 6.2 mi West 4.6 mph - N/A Rain Light Rain
2:20 PM 60.8 °F 55.4 °F 82% 29.56 in 6.2 mi SW 5.8 mph - N/A Rain Light Rain
2:50 PM 62.6 °F 57.2 °F 82% 29.56 in 6.2 mi West 4.6 mph - N/A   Mostly Cloudy
3:20 PM 64.4 °F 59.0 °F 83% 29.56 in 6.2 mi Variable 2.3 mph - N/A   Mostly Cloudy
3:50 PM 64.4 °F 59.0 °F 83% 29.53 in 6.2 mi Variable 3.5 mph - N/A   Mostly Cloudy
4:20 PM 66.2 °F 59.0 °F 78% 29.53 in 6.2 mi WSW 10.4 mph - N/A   Mostly Cloudy
4:50 PM 66.2 °F 57.2 °F 73% 29.56 in 6.2 mi WSW 10.4 mph - N/A   Mostly Cloudy
5:20 PM 64.4 °F 59.0 °F 83% 29.56 in 6.2 mi NW 4.6 mph - N/A   Mostly Cloudy
5:50 PM 66.2 °F 59.0 °F 78% 29.56 in 6.2 mi WSW 15.0 mph - N/A   Mostly Cloudy
6:20 PM 66.2 °F 59.0 °F 78% 29.56 in 6.2 mi WSW 12.7 mph - N/A   Mostly Cloudy
6:50 PM 66.2 °F 59.0 °F 78% 29.56 in 6.2 mi WSW 13.8 mph - N/A   Partly Cloudy
7:20 PM 66.2 °F 57.2 °F 73% 29.56 in 6.2 mi SW 13.8 mph - N/A   Partly Cloudy
7:50 PM 64.4 °F 59.0 °F 83% 29.59 in 6.2 mi SW 12.7 mph - N/A   Partly Cloudy
8:20 PM 64.4 °F 57.2 °F 77% 29.59 in 6.2 mi WSW 9.2 mph - N/A   Partly Cloudy
8:50 PM 64.4 °F 57.2 °F 77% 29.59 in 6.2 mi SW 8.1 mph - N/A   Partly Cloudy
9:20 PM 62.6 °F 57.2 °F 82% 29.59 in 6.2 mi Calm Calm - N/A   Partly Cloudy
9:50 PM 60.8 °F 55.4 °F 82% 29.59 in 6.2 mi Variable 2.3 mph - N/A   Partly Cloudy
10:20 PM 59.0 °F 55.4 °F 88% 29.59 in 6.2 mi Variable 2.3 mph - N/A   Partly Cloudy
10:50 PM 59.0 °F 55.4 °F 88% 29.62 in 6.2 mi Calm Calm - N/A   Partly Cloudy
11:20 PM 60.8 °F 55.4 °F 82% 29.62 in - SSE 4.6 mph - N/A   Clear
11:50 PM 59.0 °F 53.6 °F 82% 29.62 in - South 4.6 mph - N/A   Clear